GFSMW_sfc_dewp_132.txt.gz
Dewpoint
54 56 60 64 65 65 66 67 67 68 69 70 68 68 66 66 68 68 67 70 71 71 71 67 65 65 65 66 68 69 63 65 68 64 62 63 62 62 65 67 68 69 70
54 56 63 64 64 65 65 66 67 68 67 70 69 68 68 68 69 68 70 69 69 72 72 69 66 63 64 65 67 67 63 65 69 67 65 62 63 62 66 67 67 65 70
54 55 61 62 63 65 65 65 68 69 67 70 70 70 68 67 68 69 69 69 70 72 71 71 67 67 68 70 67 64 66 65 65 69 67 63 61 61 64 64 67 66 67
58 56 60 61 62 64 65 67 68 69 69 70 68 68 66 64 64 67 69 69 71 70 71 70 70 69 68 66 69 68 68 64 61 64 68 65 63 59 61 61 66 65 66
58 57 59 61 62 62 66 67 68 68 70 69 68 69 66 67 66 68 69 68 69 70 71 72 70 68 67 69 69 69 67 67 65 61 64 64 64 64 62 57 62 65 67
59 58 57 60 61 62 66 67 67 67 70 70 69 67 67 68 68 67 69 69 69 70 69 71 71 69 70 71 71 71 71 70 69 66 65 65 65 64 65 62 62 63 65
57 60 60 60 61 62 64 67 67 66 69 69 69 69 69 67 67 68 69 69 69 69 69 71 71 71 71 71 72 71 72 71 70 70 70 70 69 69 66 65 64 63 63
54 58 58 59 61 62 63 66 67 66 68 69 68 69 70 70 68 68 67 67 69 69 69 69 72 72 72 72 71 72 70 70 70 70 71 70 70 69 68 68 65 62 60
59 56 58 59 63 62 63 65 66 66 67 68 68 69 69 71 68 69 68 68 69 69 69 71 71 71 72 71 71 72 71 71 70 70 70 70 70 70 69 68 67 66 62
60 60 62 62 60 62 63 65 67 67 68 68 68 69 69 70 70 70 69 70 70 70 69 71 71 71 72 72 71 71 71 71 70 71 69 70 69 70 69 69 68 68 66
60 62 63 63 63 62 63 65 67 67 68 68 69 69 69 69 69 70 70 71 71 71 71 71 72 71 71 72 72 71 71 71 70 70 69 69 70 70 70 70 69 68 67
62 62 64 65 65 66 64 66 67 67 68 68 69 70 70 69 69 70 69 71 71 70 71 71 71 71 71 72 71 71 72 71 70 71 70 70 70 69 69 69 69 69 69
60 62 63 63 64 66 67 69 69 69 68 68 69 69 69 69 68 70 70 70 70 71 71 71 72 72 72 72 72 72 71 71 71 71 70 70 70 69 69 69 69 69 70
62 62 61 63 64 66 68 68 70 70 70 70 69 68 68 68 67 70 71 70 70 71 71 72 72 72 71 71 71 71 72 72 71 71 71 71 70 69 69 70 69 70 69
61 62 62 62 64 63 65 68 69 69 68 68 67 67 69 69 70 71 71 71 71 71 71 71 72 71 71 69 69 71 71 71 70 70 70 71 71 69 68 69 69 69 67
61 62 63 63 63 64 65 66 68 67 68 67 67 66 66 69 70 71 71 71 71 69 69 70 70 69 65 63 66 68 68 68 69 69 69 70 68 68 66 66 66 67 67
60 60 61 62 63 65 65 66 66 67 68 67 68 67 66 65 70 69 69 70 70 70 70 69 66 62 62 63 64 65 65 66 67 67 68 69 67 67 65 62 62 63 63
57 58 59 60 62 63 65 67 66 67 66 66 65 66 65 67 69 69 68 68 67 68 67 67 62 59 56 58 59 64 65 68 66 64 65 64 59 56 59 64 66 63 58
59 60 61 60 61 62 65 65 66 65 65 65 65 65 67 69 68 67 67 67 67 67 67 63 59 57 55 58 58 64 67 65 61 58 58 60 55 54 55 60 62 65 59
60 59 59 60 60 61 63 63 64 65 65 65 65 65 67 68 67 66 65 64 63 61 59 58 56 56 56 55 55 61 64 65 59 58 58 57 55 54 52 48 56 59 62
58 59 58 58 58 60 62 62 63 63 65 66 68 67 66 65 64 63 62 61 59 57 56 55 55 55 54 53 53 54 60 62 61 60 59 57 54 51 50 51 50 54 56
57 57 57 58 58 60 62 60 62 64 64 64 64 63 63 63 62 60 60 59 58 56 55 54 53 53 53 53 52 52 53 58 59 58 58 56 53 50 51 51 52 53 54
56 57 57 57 58 59 61 60 61 63 63 63 62 62 62 61 60 59 58 58 57 56 56 55 54 54 55 54 53 53 53 53 52 52 53 51 49 51 53 53 55 52 56
53 53 56 56 56 58 59 60 61 62 63 62 62 62 61 61 61 61 60 59 58 57 56 56 55 54 55 56 56 55 53 47 42 42 43 49 53 52 51 51 52 53 53
53 54 54 53 55 58 58 59 60 61 59 59 59 59 58 57 53 49 54 55 52 56 58 56 56 55 55 54 48 44 37 36 37 39 42 40 43 45 48 53 54 55 53
52 52 53 54 54 57 58 59 60 60 59 58 59 58 58 57 55 52 47 43 44 45 47 51 53 49 49 41 38 37 38 38 38 35 40 41 43 43 46 49 50 53 53

GFSMW_sfc_dewp_135.txt.gz
Dewpoint
55 61 61 62 62 66 65 62 64 68 68 68 67 67 66 67 67 68 68 68 70 71 70 68 66 65 65 65 68 68 62 64 68 62 64 64 63 63 65 66 67 68 70
54 57 60 63 64 65 66 64 66 68 68 68 68 68 66 66 67 68 68 70 70 71 71 68 65 63 63 66 66 66 62 64 68 63 65 59 62 63 65 66 67 66 68
54 56 60 63 64 64 65 65 67 68 68 69 68 68 68 67 67 68 68 70 70 71 71 69 65 64 67 68 67 64 64 63 65 67 64 61 58 60 62 62 65 66 65
54 57 60 63 64 64 65 65 67 68 67 70 68 67 66 65 66 66 68 69 70 71 70 70 66 68 66 69 68 65 67 63 59 63 66 63 62 59 60 61 64 65 65
55 58 61 62 63 64 65 65 66 67 68 69 69 67 66 66 64 66 68 68 68 71 71 70 69 67 66 66 69 67 66 67 64 60 63 62 63 63 62 59 61 65 66
59 58 61 62 62 64 64 66 67 67 68 68 68 68 66 66 67 65 67 68 68 69 70 71 70 68 66 69 70 70 68 68 66 63 64 65 64 63 64 61 62 62 65
57 58 60 62 61 62 64 66 67 67 68 68 67 67 67 67 66 66 66 68 68 68 69 70 71 70 69 71 71 71 71 71 69 68 68 67 66 67 66 64 64 64 63
56 59 59 62 63 62 64 66 66 66 68 68 68 68 68 68 67 67 68 68 68 68 68 69 71 70 71 71 71 71 70 71 70 70 70 70 70 69 68 66 65 62 61
57 57 59 60 64 64 63 66 66 65 66 68 68 68 69 69 67 68 68 67 68 69 69 69 69 71 70 71 71 71 71 71 70 69 69 70 70 69 69 68 66 65 61
59 57 60 61 62 65 65 64 66 65 66 67 68 68 68 70 69 68 68 68 69 69 70 69 70 71 71 71 70 70 71 70 70 70 69 69 69 70 69 68 67 67 65
59 61 62 63 63 64 65 64 65 65 66 66 67 67 67 68 70 69 68 69 69 70 70 69 70 71 70 71 71 70 70 70 70 70 69 69 69 69 69 69 68 68 67
62 62 63 64 64 65 65 65 65 66 66 69 67 67 68 68 68 69 69 70 70 70 70 70 71 70 70 70 71 71 72 71 70 70 70 69 70 69 69 69 68 68 68
60 62 62 63 65 66 65 66 67 68 68 69 68 68 68 68 68 68 69 70 70 70 70 70 70 70 70 71 71 71 71 71 71 70 70 70 69 69 69 68 68 68 69
61 60 61 62 63 65 67 68 69 70 70 70 70 68 68 69 68 68 70 70 70 70 70 70 71 71 71 71 71 71 70 71 71 71 71 71 70 69 68 68 68 68 68
59 61 61 61 62 63 64 67 68 70 70 70 69 69 69 69 69 68 70 70 70 70 70 70 70 71 71 70 70 71 71 70 70 70 70 70 70 70 68 69 69 69 68
60 60 61 62 62 64 65 65 67 68 70 69 69 68 67 68 69 69 69 70 70 70 70 69 70 70 70 65 65 68 69 69 69 68 68 69 68 67 66 66 65 67 68
58 58 59 61 61 63 64 65 65 67 68 68 68 67 66 65 67 68 68 69 69 69 69 69 69 67 62 63 64 65 66 66 67 66 68 69 64 64 65 62 63 63 61
56 57 57 58 59 61 63 64 66 65 67 68 68 68 66 66 67 66 68 68 69 69 68 67 64 61 58 59 60 64 65 67 65 64 66 62 57 55 58 63 65 61 56
57 58 60 60 60 62 62 64 65 66 66 66 66 67 68 66 65 66 68 68 67 66 67 64 60 58 56 58 59 62 66 64 61 59 59 56 53 55 55 59 61 63 61
59 59 59 60 60 61 62 62 62 63 64 65 66 66 66 66 66 68 68 67 67 63 61 59 58 58 60 58 59 63 66 59 58 58 58 57 56 53 53 52 56 60 60
59 59 58 57 58 59 62 60 62 62 63 63 66 65 65 66 65 65 64 63 61 60 58 56 57 56 57 56 56 57 63 60 60 60 59 57 55 51 50 51 50 54 55
57 58 58 58 58 60 61 62 61 63 63 62 62 65 64 63 62 60 60 60 58 57 56 54 53 54 55 54 53 53 55 59 59 57 56 55 50 50 51 53 52 52 53
56 57 57 57 58 59 61 61 61 62 62 61 61 61 60 60 59 59 58 57 57 56 55 55 54 54 55 55 53 53 53 54 55 53 51 49 49 50 50 51 53 53 53
55 54 57 57 57 58 60 61 61 62 61 60 59 59 57 58 60 59 59 58 58 57 56 56 55 55 56 55 55 54 50 46 38 42 45 51 52 51 52 52 52 54 52
53 54 54 55 57 58 59 60 61 60 59 59 59 58 57 56 53 48 52 56 53 56 57 56 56 55 54 53 49 42 37 34 36 40 40 42 43 45 48 50 53 54 52
52 53 55 56 57 58 59 60 60 60 60 59 59 58 57 56 55 53 50 45 47 48 48 49 53 51 48 40 38 37 36 36 39 40 43 45 44 45 46 47 48 51 52

GFSMW_sfc_dewp_138.txt.gz
Dewpoint
56 60 62 61 62 62 66 65 65 67 65 66 67 67 67 68 69 69 70 70 71 72 71 71 69 68 68 68 70 70 66 67 70 67 66 66 65 64 67 68 68 68 68
56 60 61 61 61 63 65 64 65 67 66 66 68 68 67 67 69 69 70 70 71 72 71 70 68 67 66 69 69 69 65 67 70 67 67 64 65 66 66 68 67 67 68
55 59 61 61 62 64 65 64 64 68 67 69 68 68 68 69 68 69 70 70 71 71 72 70 69 66 69 69 70 67 67 67 68 68 66 64 62 64 65 65 65 67 66
56 59 60 62 62 63 66 66 66 68 68 69 68 67 66 65 66 67 69 70 71 71 72 71 68 66 69 71 70 67 70 66 65 67 65 66 66 64 63 66 66 66 66
56 58 59 62 63 64 65 66 67 68 68 69 68 68 66 67 67 68 69 70 70 72 72 71 71 70 69 69 71 68 70 70 67 64 67 65 67 66 66 64 66 68 69
57 59 59 61 62 64 65 66 67 68 68 69 69 68 67 67 67 67 68 68 69 70 71 72 71 71 67 69 69 71 70 70 69 66 67 68 69 68 67 66 66 65 68
57 57 61 62 63 64 65 65 66 67 68 68 69 68 68 67 67 67 66 68 69 69 70 72 71 71 70 70 72 72 72 71 71 70 69 69 70 70 67 66 66 65 66
58 57 60 63 63 64 64 65 66 66 68 68 68 69 69 68 68 68 67 67 68 69 70 71 72 72 72 72 73 73 72 73 72 72 72 71 71 71 71 70 68 64 64
57 59 61 62 64 64 64 65 66 67 67 68 68 68 68 68 68 69 69 68 69 69 70 71 71 72 72 73 73 71 72 72 72 71 71 71 72 72 71 71 70 67 64
59 59 60 62 63 65 66 67 67 66 67 67 68 68 69 69 69 69 69 69 70 70 71 71 71 71 72 73 73 72 72 72 72 71 71 71 71 71 72 70 69 70 69
60 60 61 62 64 66 65 64 65 66 66 67 68 68 68 69 70 69 69 69 70 70 71 71 71 71 72 73 72 72 72 72 72 72 72 71 71 70 71 72 72 71 70
60 61 62 63 64 65 66 66 65 65 68 68 68 68 69 69 69 70 70 70 70 71 71 72 71 71 72 72 72 72 73 72 72 72 72 71 70 72 72 72 71 71 71
61 62 62 63 63 64 65 65 66 67 67 68 68 68 68 68 68 69 70 70 70 71 71 71 71 71 72 72 72 72 72 72 72 72 71 72 71 71 71 72 71 71 70
59 61 61 62 63 65 66 66 66 67 69 68 68 68 69 69 68 68 69 70 71 71 71 72 71 72 72 72 72 72 72 72 72 73 73 72 71 71 71 71 71 71 70
61 61 61 62 62 63 64 67 68 69 69 69 69 68 69 68 69 70 70 70 70 71 71 71 71 71 72 71 72 72 72 72 71 72 71 72 71 69 69 71 71 71 70
60 61 61 62 62 63 64 65 66 68 70 70 69 69 69 70 70 70 70 70 70 70 71 71 71 71 71 68 67 70 71 71 71 71 70 71 69 68 65 64 64 66 69
59 59 60 61 61 62 63 63 65 66 67 68 70 70 70 69 69 70 70 70 70 70 70 70 71 71 69 63 64 67 70 70 70 70 70 69 62 63 66 63 63 62 60
58 58 58 59 60 61 63 64 65 66 66 67 67 68 69 68 69 69 69 70 70 70 70 70 70 68 63 61 63 65 68 68 67 67 67 64 59 58 61 66 67 64 58
57 58 59 60 60 62 62 62 63 63 64 64 65 67 68 68 68 67 67 69 69 69 69 68 66 64 61 59 61 65 68 64 62 62 61 59 59 55 56 61 63 65 60
58 58 59 59 59 61 62 62 62 62 62 62 62 64 67 68 67 67 67 68 68 68 66 62 62 60 61 59 60 64 66 62 61 61 58 56 54 52 53 55 58 61 59
59 59 59 59 58 59 61 62 62 62 63 62 61 62 64 67 67 66 67 68 66 63 61 60 59 59 59 58 57 60 63 61 61 59 57 53 52 51 52 52 55 56 55
58 58 58 59 59 60 62 61 60 62 62 62 61 63 66 65 65 65 64 63 61 59 57 57 55 56 56 55 54 56 58 60 59 55 55 55 52 50 51 53 53 52 56
57 57 58 58 58 59 61 61 61 62 61 60 59 59 59 60 60 60 60 59 58 57 56 56 56 55 55 54 53 53 54 55 56 56 55 53 50 50 51 53 53 54 55
55 55 57 57 58 59 61 62 61 61 60 59 58 58 56 54 58 59 59 58 57 57 56 55 55 55 55 55 54 53 52 49 48 49 52 53 51 52 54 55 56 55 55
54 55 56 57 58 59 60 61 61 61 59 59 59 57 56 55 53 49 52 56 56 57 57 57 57 55 54 53 50 48 47 46 45 46 48 48 50 49 51 52 55 55 54
53 55 56 57 59 59 59 60 61 61 60 59 58 57 57 57 56 56 53 47 47 47 47 48 53 52 47 41 39 37 37 39 41 47 48 47 48 48 49 50 51 52 54

GFSMW_sfc_dewp_141.txt.gz
Dewpoint
57 59 61 62 63 64 66 68 69 70 70 68 67 68 67 68 68 70 72 72 73 73 74 72 72 72 71 71 71 71 69 69 71 68 67 66 67 66 66 67 66 67 66
55 57 59 61 62 64 65 68 69 71 70 68 68 67 68 68 68 70 71 72 72 73 73 74 71 72 68 70 71 72 67 68 70 67 67 62 64 66 65 66 66 66 65
55 57 60 61 62 63 65 67 69 70 70 70 68 70 70 70 69 69 69 70 72 73 74 74 72 71 69 67 71 70 69 65 68 70 66 62 59 62 65 65 65 66 65
57 59 60 61 61 63 65 67 68 70 70 71 69 69 67 66 67 68 69 69 72 72 73 74 73 72 70 71 71 71 70 70 66 68 66 69 67 61 58 66 66 67 66
57 57 59 61 62 63 64 66 68 70 70 71 71 69 69 67 68 68 71 72 73 73 72 74 74 73 70 71 73 70 72 70 70 66 67 68 67 69 66 60 62 65 67
58 58 60 62 62 63 64 66 69 70 71 71 71 71 71 70 68 69 68 68 69 70 73 73 75 74 72 70 71 73 73 72 73 69 67 68 67 67 67 65 64 64 65
57 58 59 61 63 64 65 66 68 70 70 70 70 71 71 71 71 72 68 69 68 68 71 74 75 73 74 72 72 75 75 73 73 74 71 70 70 70 69 67 64 64 64
56 58 59 61 64 64 66 66 68 69 70 70 71 72 72 69 68 70 68 68 68 69 72 73 74 74 74 73 74 73 75 74 75 74 74 70 71 71 71 69 67 63 62
57 58 59 61 64 65 65 67 68 69 69 69 70 71 72 71 69 71 71 68 71 69 72 72 73 74 74 74 74 72 75 74 74 73 74 72 70 71 73 71 70 67 63
59 59 60 60 63 65 66 67 67 68 69 69 69 69 70 71 71 72 72 71 71 73 72 72 72 73 73 74 75 72 73 74 73 71 73 74 71 71 72 72 75 70 68
60 61 62 63 64 66 66 67 67 68 69 69 70 70 69 70 71 71 71 72 72 73 73 73 73 73 73 74 75 74 73 73 74 74 74 74 74 70 70 74 74 76 75
61 62 63 64 64 66 66 65 67 67 69 70 71 70 70 70 70 71 71 72 72 72 73 73 73 73 73 75 74 73 72 73 73 73 74 73 74 75 75 77 75 71 75
62 62 64 64 65 65 66 66 66 67 67 70 70 70 70 70 70 71 71 72 73 73 72 72 73 73 74 74 74 74 74 73 74 73 73 73 74 74 76 75 74 75 71
62 63 63 65 66 66 67 68 68 69 69 69 69 70 70 70 70 72 72 72 73 72 72 72 72 73 74 74 74 73 74 73 72 74 75 74 73 73 72 73 74 73 72
61 63 64 65 66 67 67 69 69 69 69 69 69 70 71 70 71 71 72 72 72 72 73 73 73 73 74 72 73 74 74 74 73 74 74 74 72 70 70 74 73 73 71
61 63 64 64 63 64 66 68 69 70 71 70 69 71 72 71 71 72 72 72 71 72 72 72 72 73 73 68 67 71 73 74 74 73 73 73 70 69 64 64 64 67 70
61 62 63 62 63 63 63 64 66 68 68 70 71 71 72 72 72 72 72 71 71 72 72 72 72 72 74 65 66 68 75 75 74 73 73 70 65 68 70 64 63 61 59
62 62 62 62 62 63 64 65 66 67 67 68 68 69 70 71 72 72 72 72 71 71 71 71 72 72 73 63 63 66 73 73 71 71 71 68 64 61 66 69 68 64 64
62 62 62 62 61 62 62 63 65 65 64 64 64 65 66 68 70 70 71 72 72 71 71 71 73 72 71 60 61 67 71 69 67 66 64 64 63 56 59 65 66 65 61
61 61 60 60 60 61 62 62 62 63 63 62 62 63 64 64 65 69 69 70 72 72 72 71 72 68 68 58 59 65 68 66 63 61 59 56 55 53 54 59 62 61 59
61 61 60 60 59 60 62 62 63 62 64 63 62 62 62 63 64 66 69 69 69 69 68 64 65 65 65 62 58 60 68 66 63 61 57 53 53 52 52 53 58 57 56
59 59 59 60 60 60 63 63 62 64 63 63 61 60 59 63 64 64 68 68 67 64 61 58 58 59 60 58 57 59 61 62 61 58 57 56 52 50 51 54 53 53 55
58 58 59 59 60 61 63 63 63 64 64 63 59 58 56 55 59 66 65 65 62 59 58 56 55 55 55 55 54 55 56 57 59 60 58 54 50 50 52 53 54 54 54
57 57 58 59 60 61 63 64 64 64 64 61 59 58 56 53 52 53 59 59 59 58 57 56 54 54 54 54 55 54 54 53 55 55 55 53 54 54 54 56 56 55 56
55 56 58 59 60 61 62 63 63 63 63 61 60 59 59 57 53 49 47 55 53 57 56 56 55 54 53 53 52 52 53 53 51 52 53 53 53 52 53 54 54 55 55
56 57 58 59 59 61 62 63 63 63 62 59 59 60 59 58 57 55 53 47 46 46 46 47 50 49 47 45 44 44 44 44 43 50 50 50 49 48 48 50 52 54 54

GFSMW_sfc_dewp_144.txt.gz
Dewpoint
55 58 59 60 62 64 66 67 68 70 69 68 65 65 63 65 65 66 71 72 71 72 73 68 70 71 70 71 71 69 70 66 69 65 62 63 65 64 64 64 64 65 66
53 57 59 59 61 64 66 68 69 71 71 68 68 66 65 64 65 67 70 71 72 73 71 72 69 73 68 73 72 72 67 66 68 64 62 58 59 63 62 64 64 65 65
52 55 57 58 60 63 66 67 70 71 71 70 69 69 69 69 68 67 68 70 71 71 73 73 72 73 71 66 71 70 71 63 67 70 64 58 57 59 62 65 64 67 64
55 55 57 59 59 62 64 67 70 71 71 71 69 70 64 64 64 66 66 68 71 71 70 73 73 74 70 72 70 69 71 71 64 66 66 69 67 58 56 60 64 65 63
55 56 56 59 60 62 63 66 70 71 71 72 72 68 68 65 66 66 70 74 72 72 70 73 74 73 71 72 73 73 72 69 67 66 65 68 64 67 62 59 60 62 60
56 57 58 59 61 62 63 65 69 71 72 72 72 71 70 69 66 68 67 66 66 68 72 72 74 74 72 73 71 74 74 73 71 68 68 64 63 63 63 61 61 58 60
55 57 59 60 62 62 63 64 69 71 71 71 71 71 71 72 71 74 66 67 64 65 70 73 74 72 74 73 72 74 73 73 71 73 66 67 66 65 63 62 60 60 60
54 56 58 61 63 62 64 65 67 70 71 71 72 72 72 69 68 69 66 66 65 67 70 71 72 73 73 74 74 75 70 71 71 73 73 66 65 65 65 64 63 61 59
55 56 58 59 63 63 65 66 67 70 70 70 71 72 72 72 69 70 70 68 70 67 70 71 72 72 72 73 73 70 71 71 72 70 72 71 66 65 66 66 66 65 61
58 57 58 58 61 64 64 66 67 68 70 69 70 70 71 73 72 71 72 71 70 71 72 71 71 72 72 73 73 70 71 72 70 68 71 72 67 66 66 67 67 66 72
59 60 60 60 61 64 64 66 66 68 69 70 70 70 70 71 72 71 71 72 72 73 73 73 73 72 73 73 73 73 72 72 73 72 72 73 74 70 65 66 66 69 74
61 62 62 62 62 63 65 65 67 67 68 69 71 71 71 71 70 71 71 72 73 73 73 73 74 72 72 73 73 71 70 71 72 72 73 72 72 73 73 70 72 71 75
62 63 64 65 65 65 66 66 66 68 67 70 70 71 70 71 71 71 72 72 73 73 71 72 73 74 72 74 73 72 71 71 71 71 72 73 72 75 76 74 76 75 74
63 63 64 65 66 67 68 68 68 68 69 69 70 71 70 69 70 71 72 72 73 73 72 72 72 73 73 72 71 71 72 72 71 73 73 72 72 73 74 73 74 75 75
61 64 65 67 68 68 68 69 69 70 70 70 69 70 72 71 72 72 72 73 73 72 73 74 72 72 71 69 71 71 71 72 72 72 73 73 72 71 71 71 73 74 73
60 63 65 65 66 67 69 69 70 71 71 71 70 71 72 72 72 72 73 73 72 73 73 73 73 72 69 66 67 69 70 71 72 71 73 73 71 69 66 65 65 68 71
61 62 64 65 66 65 67 68 69 70 70 70 71 72 73 72 73 73 73 73 72 73 74 73 72 72 72 65 66 68 68 70 72 72 72 72 69 71 71 64 61 61 61
61 63 63 64 64 64 65 66 67 68 68 68 68 69 69 70 71 73 73 73 73 73 74 73 73 73 72 64 65 67 71 72 72 72 73 73 71 69 70 70 69 67 67
61 63 63 64 64 64 64 65 66 67 66 66 67 67 66 66 67 68 70 71 74 74 73 72 73 73 73 62 62 67 72 74 72 71 71 71 68 57 60 69 69 67 64
61 62 61 62 62 63 63 64 65 65 64 65 65 65 65 64 64 66 67 69 71 73 72 73 75 70 75 60 61 67 71 71 69 69 66 58 62 55 57 67 67 65 61
61 62 62 61 61 62 63 63 63 64 64 64 64 63 62 62 62 63 64 66 70 73 73 73 73 74 73 66 59 60 71 68 67 63 62 55 54 52 53 56 62 60 59
59 59 60 61 61 62 63 63 64 64 64 64 64 62 60 59 58 59 66 67 70 72 69 65 64 67 68 61 58 59 64 65 67 65 60 56 53 52 53 54 52 52 57
58 58 58 60 61 62 63 63 64 64 64 64 62 60 59 57 56 57 60 65 68 65 62 61 59 59 60 62 57 57 59 61 63 63 57 53 50 51 53 54 54 55 56
59 59 59 59 60 61 63 65 64 64 64 62 62 60 58 55 52 51 56 56 60 61 60 58 56 55 57 58 59 59 58 57 57 57 58 54 55 55 55 58 58 59 55
58 58 59 59 60 62 63 64 63 63 62 62 61 59 59 57 53 48 47 51 51 55 55 54 55 54 51 49 49 53 56 54 53 55 57 57 57 58 58 56 55 54 53
59 60 60 60 61 62 63 63 64 64 62 61 61 58 59 58 56 52 49 46 45 45 44 46 50 49 47 46 45 44 45 46 50 55 55 55 55 53 52 51 51 52 54